TRAAC DEB, 10796

Orbit data source: Space-Track

TRAAC DEB, 10796 is space debris in LEO originally from a launch on Wed, 15 Nov 1961 UTC launched from the Air Force Eastern Test Range (AFETR). Debris objects in space refer to the collection of defunct objects orbiting the Earth. Examples of debris include non-operational satellites, rocket bodies, and fragments generated from explosions, collisions, or faulty payload assembly.

Loading next visibility...
Identifier
10796, 1961-031D
Orbit
LEO
Country
Flag of USUS
Related business
Manufacturer
Unknown
Mission
Spacecraft
Bus & Motor
Unknown
Mass
Unknown
Launch date (UTC)
1961-11-15 (65 years ago)
Launch vehicle
Unknown
Launch site
Air Force Eastern Test Range (AFETR)
Object type
Payload
Rocket body
Debris
Shape & HBR
Unknown shape, 0.2 m
Radar Cross Section
Medium (>0.1 m² and <1 m²)

Expand to show TLE details & history
Last TLE update: 12 hours ago

TLE from 12 hours ago
0 TRAAC DEB
1 10796U 61031D   26174.80829469  .00000065  00000-0  53591-4 0  9998
2 10796  32.4417  66.4134 0101104 111.3823 309.0876 13.63241013221143
Epoch: 2026-06-23T19:23Z
TLE epoch observation values (Epoch: 2026-06-23T19:23:56.661Z)
Latitude
27.66438°
Longitude
-81.42084°
Altitude
976.455 km
Speed
7.391 km/s
True Right ascension
08h 06m 09s
True Declination
27° 31' 39"
Sunlit
Object was in daylight at epoch
Visualization orbit readout
Latitude
Unknown
Longitude
Unknown
Altitude
Unknown
Speed
Unknown
Apparent Right ascension
Unknown
Apparent Declination
Unknown
Sunlit
N/A
Visualization observer readout
Local Sidereal Time
19:00:33
Azimuth
Unknown
Elevation
Unknown
Doppler factor
Unknown
Orbital elements
Apogee altitude
1,102.197 km
Perigee altitude
952.452 km
Semi-major axis
7,405.462 km
Eccentricity
0.01011
Inclination
32.4417°
RAAN
66.4134°
Arg. of periapsis
111.3823°
True anomaly
308.18116°
Mean anomaly
309.0876°
Eccentric anomaly
308.6351°
Mean motion
3.40577 °/min
Orbital period
105.7 mins
BSTAR
0.000053591
Loading maneuver chart data...
Computing Atmospheric mass density...
Loading historical data...
Loading historical data...
Loading historical data...
Loading historical data...
Loading historical data...
Loading historical data...
Loading historical data...
Other satellites on launch #31 in the year 1961 (1961-11-15 UTC)

Documentation

Showing up to 5 results
|